When you browse on this site, cookies collect data to enhance your experience and personalize the content and advertising you see.
Visit our Privacy Policy to learn more. By continuing to use the site, you agree to this use of cookies and data.
  • In Spain
  • List of Countries
  • For 7 days
  • Water Temperature
  • Satellite Maps
  • Weather Map
  • Weather Widgets
  • user-avatar
    Login

    Hourly Weather Szolnok

    Today, 19 December, Wednesday

    Time Temperature Precipitation Wind Pressure Humidity
    00:00 -5°C° 0 mm 0 mps 764 mmHg 86%
    01:00 -5°C° 0 mm 0 mps 764 mmHg 87%
    02:00 -5°C° 0 mm 0 mps 764 mmHg 87%
    03:00 -6°C° 0 mm 0 mps 764 mmHg 88%
    04:00 -6°C° 0 mm 0 mps 764 mmHg 89%
    05:00 -6°C° 0 mm 1 mps 764 mmHg 89%
    06:00 -7°C° 0 mm 1 mps 764 mmHg 90%
    07:00 -7°C° 0 mm 1 mps 764 mmHg 91%
    08:00 -6°C° 0 mm 1 mps 764 mmHg 91%
    09:00 -4°C° 0 mm 1 mps 764 mmHg 92%
    10:00 -6°C° 0 mm 2 mps 764 mmHg 93%
    11:00 -3°C° 0 mm 1 mps 764 mmHg 92%
    12:00 -3°C° 0 mm 1 mps 764 mmHg 91%
    13:00 -2°C° 0 mm 1 mps 764 mmHg 91%
    14:00 -3°C° 0 mm 1 mps 764 mmHg 92%
    15:00 -3°C° 0 mm 1 mps 764 mmHg 93%
    16:00 -6°C° 0 mm 2 mps 763 mmHg 94%
    17:00 -6°C° 0 mm 2 mps 763 mmHg 94%
    18:00 -6°C° 0 mm 2 mps 763 mmHg 94%
    19:00 -6°C° 0 mm 2 mps 763 mmHg 94%
    20:00 -6°C° 0 mm 2 mps 763 mmHg 94%
    21:00 -6°C° 0 mm 2 mps 762 mmHg 94%
    22:00 -6°C° 0 mm 2 mps 762 mmHg 95%
    23:00 -6°C° 0 mm 2 mps 762 mmHg 95%

    Tomorrow, 20 December, Thursday

    Time Temperature Precipitation Wind Pressure Humidity
    00:00 -6°C° 0 mm 2 mps 762 mmHg 95%
    01:00 -7°C° 0 mm 2 mps 761 mmHg 95%
    02:00 -7°C° 0 mm 2 mps 761 mmHg 95%
    03:00 -7°C° 0 mm 2 mps 761 mmHg 95%
    04:00 -7°C° 0 mm 2 mps 761 mmHg 95%
    05:00 -7°C° 0 mm 2 mps 761 mmHg 95%
    06:00 -7°C° 0 mm 2 mps 761 mmHg 94%
    07:00 -7°C° 0 mm 2 mps 761 mmHg 94%
    08:00 -6°C° 0 mm 2 mps 761 mmHg 93%
    09:00 -3°C° 0 mm 1 mps 761 mmHg 92%
    10:00 -2°C° 0 mm 1 mps 761 mmHg 90%
    11:00 -2°C° 0.1 mm 1 mps 761 mmHg 90%
    12:00 -1°C° 0.1 mm 1 mps 761 mmHg 90%
    13:00 -1°C° 0.1 mm 1 mps 761 mmHg 90%
    14:00 -1°C° 0.2 mm 1 mps 761 mmHg 91%
    15:00 -1°C° 0.2 mm 1 mps 761 mmHg 93%
    16:00 -1°C° 0.2 mm 1 mps 761 mmHg 94%
    17:00 -1°C° 0.1 mm 1 mps 761 mmHg 94%
    18:00 -1°C° 0.1 mm 1 mps 761 mmHg 94%
    19:00 -1°C° 0.1 mm 1 mps 761 mmHg 94%
    20:00 -1°C° 0 mm 1 mps 762 mmHg 94%
    21:00 -1°C° 0 mm 1 mps 762 mmHg 94%
    22:00 -1°C° 0 mm 1 mps 762 mmHg 94%
    23:00 -1°C° 0.1 mm 1 mps 762 mmHg 95%

    Day after tomorrow, 21 December, Friday

    Time Temperature Precipitation Wind Pressure Humidity
    00:00 -1°C° 0.1 mm 1 mps 762 mmHg 95%
    01:00 -1°C° 0.1 mm 1 mps 762 mmHg 95%
    02:00 -1°C° 0 mm 1 mps 762 mmHg 96%
    03:00 -2°C° 0 mm 1 mps 762 mmHg 96%
    04:00 -2°C° 0 mm 1 mps 762 mmHg 96%
    05:00 -2°C° 0 mm 1 mps 762 mmHg 96%
    06:00 -4°C° 0 mm 2 mps 762 mmHg 96%
    07:00 -4°C° 0 mm 2 mps 762 mmHg 96%
    08:00 -4°C° 0 mm 2 mps 762 mmHg 95%
    09:00 -3°C° 0 mm 2 mps 762 mmHg 95%
    10:00 -4°C° 0 mm 3 mps 761 mmHg 94%
    11:00 -2°C° 0 mm 2 mps 761 mmHg 95%
    12:00 -2°C° 0 mm 2 mps 760 mmHg 95%
    13:00 -1°C° 0 mm 2 mps 760 mmHg 95%
    14:00 -1°C° 0 mm 2 mps 759 mmHg 95%
    15:00 -1°C° 0 mm 3 mps 759 mmHg 95%
    16:00 -2°C° 0 mm 3 mps 758 mmHg 95%
    17:00 -2°C° 0 mm 4 mps 758 mmHg 95%
    18:00 -2°C° 0 mm 4 mps 758 mmHg 95%
    19:00 -1°C° 0 mm 4 mps 757 mmHg 95%
    20:00 -1°C° 0.2 mm 5 mps 757 mmHg 95%
    21:00 0°C° 0.2 mm 5 mps 757 mmHg 96%
    22:00 -1°C° 0.2 mm 6 mps 756 mmHg 96%
    23:00 0°C° 0 mm 5 mps 756 mmHg 95%

    22 December, Saturday

    Time Temperature Precipitation Wind Pressure Humidity
    00:00 0°C° 0 mm 5 mps 756 mmHg 95%
    01:00 0°C° 0 mm 5 mps 755 mmHg 94%
    02:00 +1°C° 0.5 mm 5 mps 755 mmHg 95%
    03:00 +1°C° 0.5 mm 5 mps 755 mmHg 96%
    04:00 +1°C° 0.5 mm 5 mps 755 mmHg 98%
    05:00 +1°C° 0.7 mm 5 mps 755 mmHg 97%
    06:00 +1°C° 0.7 mm 5 mps 755 mmHg 97%
    07:00 +1°C° 0.7 mm 5 mps 755 mmHg 97%
    08:00 +2°C° 0.1 mm 5 mps 755 mmHg 98%
    09:00 +2°C° 0.1 mm 5 mps 755 mmHg 98%
    10:00 +2°C° 0.1 mm 5 mps 755 mmHg 99%
    11:00 +3°C° 0.1 mm 6 mps 754 mmHg 97%
    12:00 +4°C° 0.1 mm 6 mps 754 mmHg 95%
    13:00 +4°C° 0.1 mm 7 mps 754 mmHg 93%
    14:00 +4°C° 0 mm 6 mps 754 mmHg 91%
    15:00 +4°C° 0 mm 6 mps 754 mmHg 90%
    16:00 +4°C° 0 mm 6 mps 754 mmHg 88%
    17:00 +4°C° 0.1 mm 6 mps 754 mmHg 87%
    18:00 +4°C° 0.1 mm 6 mps 754 mmHg 87%
    19:00 +5°C° 0.1 mm 6 mps 755 mmHg 86%
    20:00 +5°C° 0 mm 6 mps 755 mmHg 84%
    21:00 +5°C° 0 mm 6 mps 755 mmHg 82%
    22:00 +4°C° 0 mm 6 mps 756 mmHg 79%
    23:00 +4°C° 0 mm 6 mps 756 mmHg 81%

    23 December, Sunday

    Time Temperature Precipitation Wind Pressure Humidity
    00:00 +5°C° 0 mm 5 mps 756 mmHg 82%
    01:00 +3°C° 0 mm 5 mps 756 mmHg 83%
    02:00 +3°C° 0 mm 5 mps 756 mmHg 85%
    03:00 +4°C° 0 mm 4 mps 756 mmHg 87%
    04:00 +4°C° 0 mm 4 mps 756 mmHg 89%
    05:00 +4°C° 0.1 mm 4 mps 756 mmHg 90%
    06:00 +3°C° 0.1 mm 5 mps 756 mmHg 91%
    07:00 +5°C° 0.1 mm 5 mps 756 mmHg 92%
    08:00 +4°C° 0.1 mm 6 mps 756 mmHg 89%
    09:00 +5°C° 0.1 mm 6 mps 756 mmHg 86%
    10:00 +7°C° 0.1 mm 6 mps 757 mmHg 83%
    11:00 +7°C° 0 mm 6 mps 757 mmHg 80%
    12:00 +7°C° 0 mm 6 mps 756 mmHg 77%
    13:00 +8°C° 0 mm 5 mps 756 mmHg 74%
    14:00 +7°C° 0 mm 5 mps 757 mmHg 77%
    15:00 +6°C° 0 mm 4 mps 757 mmHg 80%
    16:00 +5°C° 0 mm 4 mps 757 mmHg 82%
    17:00 +5°C° 0 mm 4 mps 757 mmHg 84%
    18:00 +4°C° 0 mm 4 mps 757 mmHg 85%
    19:00 +4°C° 0 mm 3 mps 758 mmHg 86%
    20:00 +4°C° 0 mm 4 mps 758 mmHg 87%
    21:00 +3°C° 0 mm 4 mps 758 mmHg 87%
    22:00 +3°C° 0 mm 4 mps 758 mmHg 87%
    23:00 +3°C° 0 mm 4 mps 758 mmHg 87%

    24 December, Monday

    Time Temperature Precipitation Wind Pressure Humidity
    00:00 +3°C° 0 mm 4 mps 758 mmHg 87%
    01:00 +3°C° 0 mm 4 mps 758 mmHg 86%
    02:00 +3°C° 0 mm 4 mps 758 mmHg 85%
    03:00 +3°C° 0 mm 4 mps 758 mmHg 84%
    04:00 +2°C° 0 mm 5 mps 758 mmHg 83%
    05:00 +2°C° 0 mm 5 mps 758 mmHg 82%
    06:00 +2°C° 0 mm 5 mps 758 mmHg 82%
    07:00 +1°C° 0 mm 6 mps 758 mmHg 81%
    08:00 +2°C° 0 mm 6 mps 758 mmHg 78%
    09:00 +3°C° 0 mm 7 mps 758 mmHg 75%
    10:00 +3°C° 0 mm 7 mps 758 mmHg 72%
    11:00 +4°C° 0 mm 7 mps 759 mmHg 69%
    12:00 +4°C° 0 mm 7 mps 759 mmHg 66%
    13:00 +5°C° 0 mm 6 mps 759 mmHg 64%
    14:00 +5°C° 0 mm 5 mps 759 mmHg 68%
    15:00 +4°C° 0 mm 4 mps 760 mmHg 72%
    16:00 +3°C° 0 mm 4 mps 760 mmHg 76%
    17:00 +3°C° 0 mm 3 mps 761 mmHg 78%
    18:00 +2°C° 0 mm 3 mps 761 mmHg 80%
    19:00 +2°C° 0 mm 3 mps 761 mmHg 82%
    20:00 +2°C° 0 mm 3 mps 762 mmHg 83%
    21:00 +1°C° 0 mm 3 mps 762 mmHg 84%
    22:00 0°C° 0 mm 4 mps 762 mmHg 85%
    23:00 0°C° 0 mm 4 mps 762 mmHg 85%
    Show more